Zurück zum Katalog

STARLINK-11084

AktivKommunikationVLEO
NORAD 59717·PAYLOAD·🇺🇸 United States

Gestartet May 10, 2024 von Vandenberg Space Force Base

Loading…

Nächste Überflüge (nächste 24 Stunden)

TLE

AktuellSource: CelesTrak SupGP

Epoche: Sep 14, 2026, 21:35 UTC

1 59717C 24088K   26257.89979167 -.00049581  00000+0 -40848-3 0  2571
2 59717  53.1559 113.3849 0001198  95.8736 199.7372 15.69730148    18

Verfolge STARLINK-11084 in Echtzeit mit AllMySat

Download on the App Store